Kezdőlap
METAR-TAF:

METAR-TAF

Repülőterek :

Grinnell, Iowa, Amerikai Egyesült Államok

földrajzi szélesség: 41-42-35N, földrajzi hosszúság: 092-44-09W, magasság: 307 m

Jelenlegi meteorológiai megfigyelések

A jelentés 22 perccel ezelõtt készült, 12:55 UTC
Északi szél 6 kt
Hőmérséklet -1°C
Páratartalom 80%
Légköri nyomás 1027 hPa
Látótávolság: 16.1 km
Derült ég

METAR: KGGI 041255Z AUTO 36006KT 10SM CLR M01/M04 A3034 RMK AO2 T10091043

Idő: 07:17 (13:17 UTC)


TAF: hiányzik

Meteorológiai megfigyelések és előrejelzések több, mint 4000 repülőtéren (METAR és TAF jelentéseket).

A térképen piros és sárga pontok jelzik az elérhető meteorológiai állomásokat.

Mozgassa az egeret a pont fölött, hogy megjelenjen az állomás neve.

Azután kattintson az időjárási megfigyelések és előrejelzések megtekintéséhez.

A térkép megváltoztatása: kattintson a fekete keresztel jelölt zöld gombra ráközelítéshez, a vonallal jelölt zöld gombra távolításhoz, vagy a zöld nyilakra a szomszédos térképek eléréséhez.


METAR-TAF: